Weather in Hilo

United States     19°42′26″N   155°04′11″W
temp.,
°C
wind,
m/s
gust,
m/s
humid.,
%
clouds,
%
prec.,
mm/h
press.,
hPa
HPBL,
m
16 may, sun
sun1623:00+23nne56652 0.2 10211120
02:00+23n55688 0.3 10191019
05:00+22n44664 0.0 1019969
08:00+22n34692 0.2 1020640
11:00+23ne55671 0.4 1019982
14:00+23ne65670 0.4 1017822
17:00+23nne45680 0.1 1017864
20:00+23nne447022 1.1 1018835
17 may, mon
mon1723:00+23ne457229 3.0 1019702
02:00+23nne347266 6.6 1017779
05:00+22ne347012 3.3 1018748
08:00+22ne347287 5.3 1019528
11:00+23ene55665 0.9 10191038
14:00+23ene33651 0.9 1018766
17:00+23ene436813 0.1 1017846
20:00+23ene33658 0.1 1019974
18 may, tue
tue1823:00+23ne12620 0.0 1019997
02:00+23nw12640 0.0 1018483
05:00+22n126469 0.6 1018267
08:00+23ne016742 1.7 1019650
11:00+23ese33724 1.5 1019553
14:00+24e44700 1.8 1018784
17:00+24e43660 0.0 1018930
20:00+23ese226915 0.1 1019785
19 may, wed
wed1923:00+23ese227367 0.9 1020586
02:00+23e457251 2.4 1018998
05:00+23e456940 0.9 1018989
08:00+24e446259 1.3 10201334
11:00+23e446625 0.1 1019738
14:00+24e44605 0.2 1017867
17:00+24e44656 0.0 1017870
20:00+24ese336990 0.1 1019553
20 may, thu
thu2023:00+23e3477100 0.7 1019560
02:00+23e3379100 2.0 1017380
05:00+23ene5577100 1.5 1017740
08:00+23ene4577100 2.9 1019715
11:00+23ene447486 0.9 1018917
14:00+24e447395 1.5 1017982
17:00+24ene3371100 0.3 1016969
20:00+24e2373100 0.6 1018722